Mason City, IA

4:57 PM CST on November 24, 2017 (GMT -0600)
Mason City Municipal

Weather History for KMCW - July, 2013

Change the Weather History Date:

Tuesday, July 23, 2013

  Actual Average Record
Temperature  
Mean Temperature 66 °F 72 °F  
Max Temperature 77 °F 83 °F 99 °F (1934)
Min Temperature 54 °F 61 °F 45 °F (1925)
Degree Days  
Heating Degree Days 0 0  
Month to date heating degree days 0 0  
Since 1 June heating degree days 53 44  
Since 1 July heating degree days 0 0  
Cooling Degree Days 1 7  
Month to date cooling degree days 211 163  
Year to date cooling degree days 394 336  
Since 1 June cooling degree days 357 301  
Growing Degree Days 15 (Base 50)    
Moisture  
Dew Point 54 °F    
Average Humidity 67    
Maximum Humidity 93    
Minimum Humidity 41    
Precipitation  
Precipitation T in 0.16 in 1.34 in (2001)
Month to date precipitation 1.60 3.53  
Year to date precipitation 29.45 21.15  
Snow  
Snow 0.00 in 0.00 in - ()
Month to date snowfall 0.0 0.0  
Since 1 June snowfall 0.0 0.0  
Since 1 July snowfall 0.0 0.0  
Snow Depth 0.00 in    
Sea Level Pressure  
Sea Level Pressure 29.95 in    
Wind  
Wind Speed 8 mph (North)    
Max Wind Speed 18 mph    
Max Gust Speed 22 mph    
Visibility 10 miles    
Events Rain    
T = Trace of Precipitation, MM = Missing Value Source: NWS Daily Summary

Daily Weather History Graph

Daily Weather History Graph

Search for Another Location

Airport or City:

Trip Planner

Search our weather history database for the weather conditions in past years. The results will help you decide how hot, cold, wet, or windy it might be!

Date:

Astronomy

Jul. 23, 2013 Rise Set
Actual Time 5:54 AM CDT 8:44 PM CDT
Civil Twilight 5:21 AM CDT 9:17 PM CDT
Nautical Twilight 4:39 AM CDT 9:59 PM CDT
Astronomical Twilight 3:50 AM CDT 10:48 PM CDT
Moon 9:08 PM CDT (7/23) 7:07 AM CDT (7/23)
Length of Visible Light 15h 55m
Length of Day
14h 49m
Full, 99% of the Moon is Illuminated
Jul 23
Full
Jul 29
Last Quarter
Aug 6
New
Aug 14
First Quarter
Aug 20
Full

Hourly Weather History & Observations

Time (CDT) Temp. Dew Point Humidity Pressure Visibility Wind Dir Wind Speed Gust Speed Precip Events Conditions
12:53 AM 64.9 °F 57.9 °F 78% 29.83 in 10.0 mi NNW 10.4 mph - N/A   Clear
1:53 AM 63.0 °F 57.0 °F 81% 29.84 in 10.0 mi NNW 8.1 mph - N/A   Clear
2:53 AM 59.0 °F 55.0 °F 87% 29.86 in 10.0 mi NW 5.8 mph - N/A   Clear
3:53 AM 55.9 °F 53.1 °F 90% 29.88 in 10.0 mi NW 6.9 mph - N/A   Clear
4:53 AM 57.9 °F 55.0 °F 90% 29.91 in 10.0 mi NW 6.9 mph - N/A   Mostly Cloudy
5:53 AM 57.0 °F 54.0 °F 89% 29.92 in 10.0 mi NW 6.9 mph - N/A   Clear
6:53 AM 59.0 °F 55.9 °F 90% 29.94 in 10.0 mi NW 6.9 mph - N/A   Clear
7:53 AM 64.0 °F 57.0 °F 78% 29.94 in 10.0 mi NNW 6.9 mph - N/A   Clear
8:53 AM 66.9 °F 55.9 °F 68% 29.94 in 10.0 mi North 12.7 mph - N/A   Clear
9:53 AM 66.9 °F 55.0 °F 66% 29.96 in 10.0 mi NNE 11.5 mph - N/A   Clear
10:53 AM 71.1 °F 54.0 °F 55% 29.96 in 10.0 mi North 12.7 mph - N/A   Clear
11:53 AM 73.0 °F 54.0 °F 51% 29.99 in 10.0 mi North 10.4 mph - N/A   Partly Cloudy
1:53 PM 75.9 °F 53.1 °F 45% 29.96 in 10.0 mi NNE 13.8 mph 17.3 mph N/A   Clear
2:53 PM 70.0 °F 53.1 °F 55% 29.98 in 10.0 mi NNW 5.8 mph - 0.00 in Rain Light Rain
3:53 PM 72.0 °F 53.1 °F 51% 29.96 in 10.0 mi North 11.5 mph - 0.00 in   Partly Cloudy
4:53 PM 73.9 °F 53.1 °F 48% 29.96 in 10.0 mi NNE 10.4 mph - N/A   Clear
5:53 PM 75.0 °F 53.1 °F 46% 29.97 in 10.0 mi North 6.9 mph - N/A   Clear
6:53 PM 75.0 °F 50.0 °F 41% 29.96 in 10.0 mi North 5.8 mph - N/A   Clear
7:53 PM 71.1 °F 53.1 °F 53% 29.97 in 10.0 mi North 5.8 mph - N/A   Clear
8:53 PM 63.0 °F 53.1 °F 70% 29.98 in 10.0 mi NNE 6.9 mph - N/A   Clear
9:53 PM 59.0 °F 53.1 °F 81% 30.00 in 10.0 mi NNE 5.8 mph - N/A   Clear
10:53 PM 57.9 °F 53.1 °F 84% 30.01 in 10.0 mi NE 4.6 mph - N/A   Clear
11:53 PM 57.0 °F 52.0 °F 83% 30.03 in 10.0 mi Calm Calm - N/A   Clear